Flag for Canada Weather past 2 weeks in Thompson, Manitoba, Canada

Now
55 °F

Sprinkles. Partly sunny.


Feels Like: 51 °F
Forecast: N/A
Wind: 16 mph from North

Location: Thompson

Current Time: Aug 2, 2015 at 6:31:57 PM

Latest Report: Aug 2, 2015 at 6:00 PM


Visibility: 15 mi

Pressure: 29.79 "Hg

Humidity: 77%

Dew point: 48 °F

Location of ThompsonLocation

Historic Weather in Thompson — Graph

°F

Thompson temperature yesterday

Maximum temperature yesterday: 66 °F (at 3:00 PM)
Minimum temperature yesterday: 48 °F (at 6:00 AM)
Average temperature yesterday: 58 °F

Past Weeks' High & Low Weather Summary

 TemperatureHumidityPressure
High84 °F (Jul 26, 4:00 PM)100% (Jul 18, 10:00 PM)29.95 "Hg (Jul 18, 10:00 PM)
Low39 °F (Jul 21, 6:00 AM)32% (Jul 22, 2:00 PM)29.33 "Hg (Jul 29, 5:00 AM)
Average62 °F73%29.73 "Hg
* Reported Jul 18 5:00 PM — Aug 2 5:00 PM, Thompson, Weather by CustomWeather, © 2015

Note: Actual official high and low records may vary slightly from our data, if they occured in-between our weather recording intervals... More about our weather records

Advertising

Thompson weather history for previous 24 hours

 ConditionsComfort  
Time TempWeatherWind HumidityBarometerVisibility
5:00 PM
Sun, Aug 2
57 °FSprinkles. Overcast.15 mph77%29.77 "Hg15 mi
4:00 PM59 °FSprinkles. More clouds than sun.15 mph68%29.76 "Hg15 mi
3:00 PM57 °FMore clouds than sun.17 mph72%29.75 "Hg12 mi
2:00 PM55 °FSprinkles. Mostly cloudy.16 mph82%29.73 "Hg12 mi
1:00 PM54 °FMostly cloudy.10 mph88%29.73 "Hg12 mi
12:00 PM52 °FMostly cloudy.13 mph94%29.71 "Hg15 mi
11:00 AM52 °FSprinkles. Mostly cloudy.13 mph88%29.71 "Hg5 mi
10:00 AM52 °FSprinkles. Mostly cloudy.15 mph88%29.69 "Hg15 mi
9:00 AM52 °FSprinkles. Mostly cloudy.9 mph88%29.68 "Hg15 mi
8:00 AM52 °FSprinkles. Mostly cloudy.9 mph88%29.68 "Hg15 mi
7:00 AM50 °FSprinkles. Mostly cloudy.10 mph88%29.67 "Hg12 mi
6:00 AM50 °FMostly cloudy.8 mph88%29.67 "Hg15 mi
5:00 AM50 °FSprinkles. Mostly cloudy.9 mph88%29.66 "Hg15 mi
4:00 AM50 °FSprinkles. Mostly cloudy.8 mph94%29.66 "Hg15 mi
3:00 AM52 °FSprinkles. Mostly cloudy.12 mph88%29.66 "Hg15 mi
2:00 AM52 °FSprinkles. Mostly cloudy.9 mph88%29.67 "Hg15 mi
1:00 AM52 °FSprinkles. Overcast.8 mph88%29.67 "Hg12 mi
12:00 AM52 °FSprinkles. Mostly cloudy.8 mph88%29.68 "Hg15 mi
11:00 PM
Sat, Aug 1
55 °FSprinkles. Passing clouds.10 mph77%29.68 "Hg15 mi
10:00 PM55 °FSprinkles. Partly sunny.8 mph77%29.68 "Hg15 mi
9:00 PM57 °FSprinkles. Partly sunny.8 mph72%29.68 "Hg15 mi
8:00 PM57 °FSprinkles. Overcast.10 mph77%29.67 "Hg15 mi
7:00 PM63 °FSprinkles. Mostly cloudy.10 mph59%29.66 "Hg15 mi
6:00 PM63 °FSprinkles. Partly sunny.10 mph59%29.67 "Hg15 mi
Weather by CustomWeather, © 2015

See weather overviewHow to use our weather pages